period_start,C,m1,H,J0,J1,J2,J3,J4,J5,JA,JB,JC,JD,JJ,JK,JN,#
2014-05-29 00:03:26,0.01,0.88,0.00,20.77,26.67,28.69,9.71,41.05,1008.80,2041.00,3148.92,3070.00,3308.33,499.96,496.58,36.01,0000 0000 0000 0000 000000
2014-05-29 00:08:27,0.02,0.89,0.00,20.79,26.67,28.73,9.63,40.83,1008.82,2041.00,3148.14,3069.93,3308.01,499.98,496.47,36.05,0000 0000 0000 0000 000000
2014-05-29 00:13:28,0.02,0.89,0.00,20.77,26.68,28.71,9.63,40.93,1008.83,2041.00,3148.00,3069.29,3307.99,500.12,496.73,36.10,0000 0000 0000 0000 000000
2014-05-29 00:18:29,0.01,0.89,0.00,20.79,26.70,28.73,9.64,40.88,1008.83,2041.00,3147.95,3069.06,3307.77,500.08,496.87,36.14,0000 0000 0000 0000 000000
2014-05-29 00:23:30,0.03,0.89,0.00,20.81,26.70,28.75,9.65,40.99,1008.83,2041.00,3147.23,3069.00,3307.10,500.11,496.64,36.18,0000 0000 0000 0000 000000
2014-05-29 00:28:32,0.00,0.89,0.00,20.79,26.71,28.77,9.67,40.90,1008.82,2041.00,3147.01,3068.99,3307.00,499.79,496.63,36.22,0000 0000 0000 0000 000000
2014-05-29 00:33:33,0.02,0.89,0.00,20.83,26.72,28.74,9.64,40.92,1008.81,2041.00,3146.89,3068.77,3306.84,500.43,496.97,36.26,0000 0000 0000 0000 000000
2014-05-29 00:38:34,0.04,0.89,0.00,20.85,26.72,28.75,9.70,40.88,1008.82,2041.00,3146.09,3068.05,3306.07,499.94,496.51,36.30,0000 0000 0000 0000 000000
2014-05-29 00:43:35,0.00,0.89,0.00,20.85,26.73,28.79,9.59,40.80,1008.82,2040.99,3145.99,3068.00,3306.00,499.91,496.49,36.34,0000 0000 0000 0000 000000
2014-05-29 00:48:36,0.03,0.89,0.00,20.88,26.75,28.79,9.68,40.86,1008.81,2040.98,3145.41,3067.94,3305.65,500.02,496.23,36.39,0000 0000 0000 0000 000000
2014-05-29 00:53:37,0.03,0.89,0.00,20.88,26.75,28.86,9.68,40.88,1008.81,2040.97,3145.01,3067.35,3305.06,499.89,496.15,36.43,0000 0000 0000 0000 000000
2014-05-29 00:58:39,0.01,0.90,0.00,20.86,26.76,28.89,9.71,40.84,1008.81,2040.97,3144.80,3067.02,3305.00,500.31,496.90,36.47,0000 0000 0000 0000 000000
2014-05-29 01:03:40,0.01,0.90,0.00,20.89,26.77,28.90,9.70,40.87,1008.80,2040.97,3144.10,3067.00,3304.88,499.79,496.38,36.51,0000 0000 0000 0000 000000
2014-05-29 01:08:41,0.01,0.90,0.00,20.87,26.77,28.92,9.62,40.96,1008.80,2040.96,3144.00,3066.95,3304.18,500.01,496.55,36.55,0000 0000 0000 0000 000000
2014-05-29 01:13:42,0.03,0.90,0.00,20.90,26.79,28.90,9.56,40.81,1008.78,2040.95,3143.69,3066.45,3304.00,499.75,496.10,36.59,0000 0000 0000 0000 000000
2014-05-29 01:18:43,0.01,0.90,0.00,20.92,26.80,28.87,9.63,41.03,1008.71,2040.93,3143.09,3066.09,3303.97,500.18,496.65,36.64,0000 0000 0000 0000 000000
2014-05-29 01:23:45,0.02,0.90,0.00,20.95,26.80,28.87,9.61,40.90,1008.38,2040.93,3142.98,3066.00,3303.46,499.89,496.22,36.68,0000 0000 0000 0000 000000
2014-05-29 01:28:46,0.02,0.90,0.00,20.95,26.81,28.87,9.63,41.03,1008.33,2040.90,3142.28,3065.99,3303.02,500.18,496.38,36.72,0000 0000 0000 0000 000000
2014-05-29 01:33:46,-0.01,0.90,0.00,20.97,26.82,28.91,9.54,40.88,1008.32,2040.76,3142.01,3065.77,3302.98,500.07,495.94,36.76,0000 0000 0000 0000 000000
2014-05-29 01:38:47,0.00,0.90,0.00,20.93,26.83,28.89,9.61,40.76,1008.32,2040.42,3141.90,3065.09,3302.33,499.95,496.08,36.80,0000 0000 0000 0000 000000
2014-05-29 01:43:48,0.02,0.90,0.00,20.96,26.85,28.86,9.61,40.94,1008.32,2040.53,3141.23,3065.00,3302.02,500.11,496.25,36.84,0000 0000 0000 0000 000000
2014-05-29 01:48:49,-0.01,0.90,0.00,21.01,26.85,28.90,9.67,40.90,1008.18,2040.38,3141.01,3064.99,3301.98,500.26,496.16,36.89,0000 0000 0000 0000 000000
2014-05-29 01:53:50,0.00,0.90,0.00,21.02,26.86,28.93,9.55,40.84,1007.90,2040.09,3140.93,3064.77,3301.51,499.93,495.77,36.93,0000 0000 0000 0000 000000
2014-05-29 01:58:51,0.04,0.90,0.00,21.01,26.87,28.94,9.62,41.05,1007.90,2040.04,3140.29,3064.20,3301.05,500.11,495.91,36.97,0000 0000 0000 0000 000000
2014-05-29 02:03:52,0.01,0.90,0.00,21.04,26.87,28.94,9.63,40.92,1007.85,2040.03,3139.97,3064.01,3300.99,499.97,495.62,37.01,0000 0000 0000 0000 000000
2014-05-29 02:08:53,0.02,0.90,0.00,21.02,26.89,28.96,9.66,40.88,1007.86,2040.03,3139.57,3064.00,3300.78,500.11,496.05,37.05,0000 0000 0000 0000 000000
2014-05-29 02:13:54,0.02,0.90,0.00,21.01,26.90,28.95,9.59,40.77,1007.86,2040.01,3139.02,3063.88,3300.08,499.32,495.03,37.09,0000 0000 0000 0000 000000
2014-05-29 02:18:55,0.03,0.91,0.00,21.07,26.90,28.98,9.61,40.78,1007.87,2040.01,3138.78,3063.16,3300.00,499.94,495.69,37.13,0000 0000 0000 0000 000000
2014-05-29 02:23:56,0.01,0.91,0.00,21.07,26.92,29.07,9.68,40.83,1007.85,2040.01,3138.05,3063.01,3299.83,500.30,495.94,37.18,0000 0000 0000 0000 000000
2014-05-29 02:28:58,0.01,0.91,0.00,21.08,26.92,29.05,9.58,40.70,1007.84,2040.00,3137.99,3062.99,3299.13,499.94,495.74,37.22,0000 0000 0000 0000 000000
2014-05-29 02:33:59,0.03,0.91,0.00,21.10,26.94,29.05,9.62,40.94,1007.84,2040.00,3137.52,3062.66,3299.00,500.35,495.92,37.26,0000 0000 0000 0000 000000
2014-05-29 02:39:00,0.02,0.91,0.00,21.11,26.95,29.04,9.61,40.88,1007.84,2040.00,3137.04,3062.09,3298.92,499.96,495.51,37.30,0000 0000 0000 0000 000000
2014-05-29 02:44:01,0.01,0.91,0.00,21.08,26.95,29.10,9.63,40.89,1007.83,2040.00,3136.96,3062.00,3298.27,499.83,495.43,37.34,0000 0000 0000 0000 000000
2014-05-29 02:49:02,0.02,0.91,0.00,21.11,26.97,29.15,9.69,40.92,1007.83,2040.00,3136.21,3061.97,3298.00,500.27,495.64,37.38,0000 0000 0000 0000 000000
2014-05-29 02:54:03,0.01,0.91,0.00,21.11,26.97,29.19,9.60,40.91,1007.83,2039.99,3136.00,3061.58,3297.95,499.82,495.26,37.43,0000 0000 0000 0000 000000
2014-05-29 02:59:05,0.03,0.91,0.00,21.13,26.99,29.14,9.60,40.86,1007.83,2039.99,3135.76,3061.19,3297.44,499.98,495.45,37.47,0000 0000 0000 0000 000000
2014-05-29 03:04:06,0.01,0.91,0.00,21.14,27.00,29.04,9.61,40.77,1007.83,2039.99,3135.09,3061.00,3297.01,499.89,495.28,37.51,0000 0000 0000 0000 000000
2014-05-29 03:09:07,0.00,0.91,0.00,21.18,27.01,29.07,9.65,40.98,1007.83,2039.99,3135.00,3060.99,3296.99,500.27,495.66,37.55,0000 0000 0000 0000 000000
2014-05-29 03:14:08,0.01,0.91,0.00,21.22,27.02,29.12,9.63,40.89,1007.79,2039.99,3134.96,3060.86,3296.73,500.28,495.69,37.59,0000 0000 0000 0000 000000
2014-05-29 03:19:09,0.05,0.92,0.00,21.24,27.03,29.17,9.65,40.87,1007.68,2039.99,3134.24,3060.13,3296.05,500.05,495.38,37.63,0000 0000 0000 0000 000000
2014-05-29 03:24:10,0.00,0.92,0.00,21.20,27.05,29.29,9.65,40.87,1007.47,2039.99,3134.00,3060.00,3295.99,500.45,495.62,37.67,0000 0000 0000 0000 000000
2014-05-29 03:29:10,0.02,0.92,0.00,21.20,27.05,29.31,9.70,41.02,1007.40,2039.98,3133.59,3059.95,3295.56,499.97,495.17,37.72,0000 0000 0000 0000 000000
2014-05-29 03:34:11,0.04,0.92,0.00,21.24,27.07,29.25,9.61,40.83,1007.39,2039.95,3133.03,3059.33,3295.02,499.73,494.79,37.76,0000 0000 0000 0000 000000
2014-05-29 03:39:12,0.00,0.92,0.00,21.25,27.07,29.26,9.67,40.89,1007.35,2039.95,3132.90,3059.01,3294.91,500.29,495.28,37.80,0000 0000 0000 0000 000000
2014-05-29 03:44:14,0.02,0.92,0.00,21.25,27.10,29.26,9.64,40.98,1007.35,2039.89,3132.16,3058.99,3294.20,500.57,495.66,37.84,0000 0000 0000 0000 000000
2014-05-29 03:49:15,-0.00,0.92,0.00,21.25,27.10,29.18,9.42,40.79,1007.35,2039.72,3131.99,3058.70,3294.00,499.41,494.42,37.88,0000 0000 0000 0000 000000
2014-05-29 03:54:16,0.03,0.92,0.00,21.27,27.12,29.18,9.63,40.93,1007.34,2039.59,3131.44,3058.05,3293.73,500.11,494.93,37.92,0000 0000 0000 0000 000000
2014-05-29 03:59:17,-0.02,0.92,0.00,21.29,27.12,29.27,9.61,40.88,1007.34,2039.35,3130.99,3058.00,3293.06,499.86,494.95,37.97,0000 0000 0000 0000 000000
2014-05-29 04:04:19,0.00,0.92,0.00,21.33,27.15,29.26,9.64,40.89,1007.33,2039.18,3130.58,3057.90,3292.99,500.03,495.02,38.01,0000 0000 0000 0000 000000
2014-05-29 04:09:20,0.03,0.92,0.00,21.34,27.15,29.22,9.65,40.98,1007.32,2039.20,3130.05,3057.33,3292.75,500.26,495.27,38.05,0000 0000 0000 0000 000000
2014-05-29 04:14:21,0.02,0.92,0.00,21.32,27.17,29.23,9.54,40.73,1007.33,2039.22,3129.97,3057.02,3292.09,499.80,494.97,38.09,0000 0000 0000 0000 000000
2014-05-29 04:19:22,0.01,0.92,0.00,21.37,27.18,29.24,9.55,40.63,1007.30,2039.16,3129.33,3056.99,3292.00,499.63,494.74,38.13,0000 0000 0000 0000 000000
2014-05-29 04:24:23,0.03,0.93,0.00,21.42,27.20,29.27,9.61,40.76,1007.13,2039.04,3128.99,3056.45,3291.36,499.97,494.71,38.17,0000 0000 0000 0000 000000
2014-05-29 04:29:24,0.02,0.93,0.00,21.42,27.21,29.30,9.49,40.88,1006.96,2039.02,3128.42,3056.02,3291.00,499.67,494.29,38.21,0000 0000 0000 0000 000000
2014-05-29 04:34:25,0.01,0.93,0.00,21.41,27.22,29.34,9.64,40.80,1006.89,2039.00,3128.01,3055.99,3290.62,499.89,494.28,38.26,0000 0000 0000 0000 000000
2014-05-29 04:39:26,0.03,0.93,0.00,21.47,27.25,29.55,9.66,40.76,1006.87,2039.00,3127.69,3055.63,3290.04,500.21,494.70,38.30,0000 0000 0000 0000 000000
2014-05-29 04:44:27,0.02,0.93,0.00,21.47,27.26,29.64,9.58,40.77,1006.86,2039.00,3127.03,3055.03,3289.88,500.05,494.56,38.34,0000 0000 0000 0000 000000
2014-05-29 04:49:28,0.02,0.93,0.00,21.52,27.27,29.64,9.62,40.83,1006.85,2038.99,3126.72,3054.94,3289.13,500.27,494.62,38.38,0000 0000 0000 0000 000000
2014-05-29 04:54:30,0.04,0.93,0.00,21.49,27.30,29.65,9.67,40.80,1006.85,2038.99,3126.05,3054.22,3288.97,500.32,494.73,38.42,0000 0000 0000 0000 000000
2014-05-29 04:59:31,0.02,0.93,0.00,21.53,27.31,29.71,9.53,40.87,1006.85,2038.98,3125.78,3054.00,3288.46,499.87,494.35,38.46,0000 0000 0000 0000 000000
2014-05-29 05:04:32,0.02,0.93,0.00,21.58,27.32,29.84,9.54,40.93,1006.85,2038.97,3125.07,3053.91,3288.01,499.82,494.13,38.51,0000 0000 0000 0000 000000
2014-05-29 05:09:33,0.03,0.94,0.00,21.99,27.35,30.21,9.61,40.64,1006.85,2038.87,3124.73,3053.13,3287.68,499.95,493.63,38.55,0000 0000 0000 0000 000000
2014-05-29 05:14:34,0.02,0.94,0.00,22.29,27.37,30.21,9.54,40.69,1006.85,2038.83,3124.06,3053.00,3287.04,499.94,492.88,38.59,0000 0000 0000 0000 000000
2014-05-29 05:19:36,-0.01,0.94,0.00,22.46,27.39,30.32,9.52,40.74,1006.85,2038.74,3123.99,3052.88,3286.99,499.94,492.82,38.63,0000 0000 0000 0000 000000
2014-05-29 05:24:37,0.03,0.94,0.00,22.53,27.40,30.37,9.51,40.63,1006.84,2038.64,3123.59,3052.17,3286.46,499.41,492.16,38.67,0000 0000 0000 0000 000000
2014-05-29 05:29:38,-0.01,0.94,0.00,22.58,27.42,30.40,9.56,40.73,1006.85,2038.38,3123.03,3052.00,3286.01,500.31,492.94,38.71,0000 0000 0000 0000 000000
2014-05-29 05:34:39,0.01,0.94,0.00,22.62,27.43,30.42,9.57,40.71,1006.79,2038.21,3122.60,3051.83,3285.76,500.12,492.53,38.76,0000 0000 0000 0000 000000
2014-05-29 05:39:40,0.03,0.94,0.00,22.64,27.45,30.43,9.57,40.64,1006.80,2038.08,3122.02,3051.11,3285.09,500.05,492.56,38.80,0000 0000 0000 0000 000000
2014-05-29 05:44:42,0.01,0.94,0.00,22.68,27.46,30.44,9.50,40.65,1006.73,2038.04,3121.79,3051.00,3284.98,499.86,492.16,38.84,0000 0000 0000 0000 000000
2014-05-29 05:49:43,0.04,0.94,0.00,22.69,27.47,30.45,9.57,40.56,1006.58,2038.03,3121.05,3050.79,3284.38,500.28,492.47,38.88,0000 0000 0000 0000 000000
2014-05-29 05:54:44,0.02,0.94,0.00,22.70,27.47,30.44,9.52,40.60,1006.43,2038.03,3120.84,3050.14,3284.01,499.90,492.19,38.92,0000 0000 0000 0000 000000
2014-05-29 05:59:45,0.02,0.94,0.00,22.71,27.47,30.44,9.51,40.71,1006.39,2038.03,3120.07,3050.00,3283.86,499.82,492.00,38.96,0000 0000 0000 0000 000000
2014-05-29 06:04:46,0.01,0.94,0.00,22.73,27.48,30.44,9.51,40.61,1006.38,2038.03,3119.96,3049.95,3283.17,500.12,492.34,39.01,0000 0000 0000 0000 000000
2014-05-29 06:09:47,0.05,0.95,0.00,22.76,27.49,30.45,9.51,40.65,1006.37,2038.00,3119.12,3049.17,3282.98,499.90,491.99,39.05,0000 0000 0000 0000 000000
2014-05-29 06:14:48,0.02,0.95,0.00,22.78,27.50,30.45,9.55,40.81,1006.37,2038.01,3118.86,3049.00,3282.49,499.69,491.75,39.09,0000 0000 0000 0000 000000
2014-05-29 06:19:50,0.02,0.95,0.00,22.79,27.50,30.45,9.52,40.58,1006.36,2038.00,3118.11,3048.88,3282.02,500.06,491.84,39.13,0000 0000 0000 0000 000000
2014-05-29 06:24:50,0.03,0.95,0.00,22.81,27.50,30.45,9.53,40.43,1006.36,2038.00,3117.88,3048.12,3281.82,500.20,492.10,39.17,0000 0000 0000 0000 000000
2014-05-29 06:29:52,0.03,0.95,0.00,22.82,27.50,30.46,9.54,40.58,1006.36,2038.00,3117.11,3048.00,3281.08,500.02,492.00,39.21,0000 0000 0000 0000 000000
2014-05-29 06:34:53,0.01,0.95,0.00,22.83,27.50,30.45,9.56,40.38,1006.36,2038.00,3116.87,3047.81,3280.95,500.49,492.51,39.26,0000 0000 0000 0000 000000
2014-05-29 06:39:54,0.05,0.95,0.00,22.85,27.50,30.45,9.47,40.49,1006.30,2038.00,3116.09,3047.10,3280.22,500.00,492.02,39.30,0000 0000 0000 0000 000000
2014-05-29 06:44:55,0.00,0.95,0.00,22.87,27.50,30.44,9.56,40.42,1006.27,2038.00,3115.86,3047.00,3280.00,500.31,492.01,39.34,0000 0000 0000 0000 000000
2014-05-29 06:49:57,0.05,0.96,0.00,22.89,27.51,30.45,9.47,40.45,1006.24,2038.00,3115.08,3046.49,3279.45,499.82,491.87,39.38,0000 0000 0000 0000 000000
2014-05-29 06:54:58,0.01,0.96,0.00,22.90,27.51,30.44,9.49,40.56,1006.08,2038.00,3114.89,3046.02,3279.02,499.57,491.36,39.42,0000 0000 0000 0000 000000
2014-05-29 06:59:59,0.02,0.96,0.00,22.93,27.52,30.44,9.49,40.49,1006.01,2038.00,3114.08,3045.99,3278.91,499.73,491.41,39.46,0000 0000 0000 0000 000000
2014-05-29 07:05:00,0.02,0.96,0.00,22.94,27.52,30.43,9.51,40.63,1006.07,2038.00,3113.95,3045.78,3278.24,499.78,491.47,39.51,0000 0000 0000 0000 000000
2014-05-29 07:10:01,0.04,0.96,0.00,22.96,27.52,30.42,9.56,40.63,1006.14,2038.00,3113.18,3045.08,3277.99,500.11,491.90,39.55,0000 0000 0000 0000 000000
2014-05-29 07:15:02,0.01,0.96,0.00,22.97,27.52,30.41,9.52,40.46,1006.16,2038.01,3112.98,3045.00,3277.71,500.02,491.75,39.59,0000 0000 0000 0000 000000
2014-05-29 07:20:03,0.03,0.96,0.00,22.97,27.52,30.41,9.52,40.53,1005.97,2038.01,3112.34,3044.74,3277.06,500.10,491.65,39.63,0000 0000 0000 0000 000000
2014-05-29 07:25:04,0.02,0.96,0.00,22.99,27.52,30.41,9.51,40.56,1005.90,2038.00,3112.01,3044.19,3276.97,499.86,491.46,39.67,0000 0000 0000 0000 000000
2014-05-29 07:30:05,0.03,0.97,0.00,23.02,27.51,30.41,9.50,40.52,1005.89,2038.00,3111.59,3044.00,3276.37,500.06,491.47,39.71,0000 0000 0000 0000 000000
2014-05-29 07:35:06,0.01,0.97,0.00,23.03,27.51,30.40,9.43,40.33,1005.89,2038.00,3111.02,3043.85,3276.00,499.82,491.35,39.76,0000 0000 0000 0000 000000
2014-05-29 07:40:07,0.04,0.97,0.00,23.06,27.51,30.40,9.45,40.46,1005.89,2038.00,3110.71,3043.14,3275.88,499.99,491.34,39.80,0000 0000 0000 0000 000000
2014-05-29 07:45:08,0.02,0.97,0.00,23.05,27.50,30.38,9.55,40.54,1005.88,2038.01,3110.06,3043.00,3275.20,499.93,491.30,39.84,0000 0000 0000 0000 000000
2014-05-29 07:50:09,0.01,0.97,0.00,23.06,27.50,30.38,9.57,40.39,1005.88,2038.00,3109.79,3042.93,3275.00,500.24,491.79,39.88,0000 0000 0000 0000 000000
2014-05-29 07:55:10,0.04,0.97,0.00,23.08,27.50,30.38,9.49,40.39,1005.87,2038.00,3109.04,3042.25,3274.71,499.84,491.12,39.92,0000 0000 0000 0000 000000
2014-05-29 08:00:12,0.01,0.97,0.00,23.09,27.50,30.38,9.48,40.36,1005.87,2038.01,3108.81,3042.01,3274.06,499.73,490.95,39.96,0000 0000 0000 0000 000000
2014-05-29 08:05:12,0.01,0.97,0.00,23.12,27.50,30.37,9.48,40.47,1005.87,2038.00,3108.10,3041.97,3273.98,500.11,491.44,40.01,0000 0000 0000 0000 000000
2014-05-29 08:10:14,0.03,0.97,0.00,23.14,27.50,30.37,9.52,40.36,1005.87,2038.00,3107.98,3041.63,3273.67,500.22,491.67,40.05,0000 0000 0000 0000 000000
2014-05-29 08:15:15,0.02,0.98,0.00,23.13,27.50,30.36,9.48,40.42,1005.87,2038.01,3107.64,3041.12,3273.16,499.68,490.91,40.09,0000 0000 0000 0000 000000
2014-05-29 08:20:16,0.01,0.98,0.00,23.15,27.50,30.36,9.55,40.52,1005.87,2038.00,3107.04,3041.00,3273.00,500.39,491.48,40.13,0000 0000 0000 0000 000000
2014-05-29 08:25:17,0.00,0.98,0.00,23.16,27.50,30.36,9.46,40.43,1005.87,2038.00,3106.98,3041.00,3272.98,500.17,491.28,40.17,0000 0000 0000 0000 000000
2014-05-29 08:30:18,0.03,0.98,0.00,23.16,27.50,30.36,9.57,40.44,1005.86,2038.01,3106.59,3040.86,3272.53,500.09,491.24,40.21,0000 0000 0000 0000 000000
2014-05-29 08:35:19,0.03,0.98,0.00,23.19,27.50,30.35,9.42,40.33,1005.86,2038.00,3106.03,3040.18,3272.03,499.35,490.56,40.26,0000 0000 0000 0000 000000
2014-05-29 08:40:20,0.00,0.98,0.00,23.19,27.50,30.34,9.54,40.62,1005.84,2038.00,3105.98,3040.01,3271.99,500.20,491.25,40.30,0000 0000 0000 0000 000000
2014-05-29 08:45:21,0.01,0.98,0.00,23.20,27.50,30.34,9.49,40.45,1005.76,2038.01,3105.62,3040.00,3271.93,499.98,491.13,40.34,0000 0000 0000 0000 000000
2014-05-29 08:50:22,0.02,0.98,0.00,23.22,27.50,30.35,9.45,40.24,1005.69,2038.01,3105.04,3039.98,3271.37,499.84,490.75,40.38,0000 0000 0000 0000 000000
2014-05-29 08:55:23,0.01,0.98,0.00,23.22,27.50,30.33,9.45,40.31,1005.70,2038.01,3104.99,3039.80,3271.04,500.06,491.02,40.42,0000 0000 0000 0000 000000
2014-05-29 09:00:24,0.02,0.98,0.00,23.24,27.50,30.33,9.49,40.54,1005.78,2038.03,3104.86,3039.36,3271.00,500.16,491.13,40.46,0000 0000 0000 0000 000000
2014-05-29 09:05:25,0.02,0.98,0.00,23.25,27.50,30.33,9.55,40.33,1005.79,2038.01,3104.19,3039.02,3270.98,500.34,491.31,40.51,0000 0000 0000 0000 000000
2014-05-29 09:10:26,0.01,0.98,0.00,23.25,27.50,30.32,9.55,40.44,1005.75,2038.02,3104.00,3039.00,3270.70,499.99,491.03,40.55,0000 0000 0000 0000 000000
2014-05-29 09:15:27,0.01,0.98,0.00,23.25,27.50,30.30,9.47,40.49,1005.74,2038.03,3103.97,3038.96,3270.08,499.88,490.76,40.59,0000 0000 0000 0000 000000
2014-05-29 09:20:28,0.03,0.99,0.00,23.26,27.50,30.30,9.54,40.46,1005.71,2038.02,3103.42,3038.56,3270.00,500.23,491.23,40.63,0000 0000 0000 0000 000000
2014-05-29 09:25:29,0.01,0.99,0.00,23.27,27.49,30.31,9.48,40.28,1005.58,2038.02,3103.02,3038.05,3269.99,499.55,490.44,40.67,0000 0000 0000 0000 000000
2014-05-29 09:30:30,0.00,0.99,0.00,23.27,27.49,30.29,9.47,40.47,1005.69,2038.05,3102.99,3038.00,3269.85,500.19,490.92,40.71,0000 0000 0000 0000 000000
2014-05-29 09:35:31,0.02,0.99,0.00,23.26,27.48,30.27,9.50,40.30,1005.73,2038.10,3102.75,3038.00,3269.39,500.26,491.20,40.76,0000 0000 0000 0000 000000
2014-05-29 09:40:33,0.01,0.99,0.00,23.27,27.47,30.26,9.43,40.48,1005.69,2038.10,3102.13,3037.97,3269.03,499.57,490.57,40.80,0000 0000 0000 0000 000000
2014-05-29 09:45:34,0.01,0.99,0.00,23.26,27.47,30.25,9.47,40.58,1005.51,2038.07,3101.99,3037.76,3269.00,499.78,490.64,40.84,0000 0000 0000 0000 000000
2014-05-29 09:50:35,0.02,0.99,0.00,23.27,27.47,30.24,9.51,40.40,1005.42,2038.11,3101.90,3037.20,3268.98,499.86,490.62,40.88,0000 0000 0000 0000 000000
2014-05-29 09:55:37,0.02,0.99,0.00,23.26,27.47,30.23,9.50,40.51,1005.40,2038.07,3101.21,3037.01,3268.63,500.08,490.74,40.92,0000 0000 0000 0000 000000
2014-05-29 10:00:38,0.02,0.99,0.00,23.24,27.47,30.22,9.51,40.41,1005.40,2038.16,3101.01,3037.00,3268.10,499.88,490.96,40.96,0000 0000 0000 0000 000000
2014-05-29 10:05:39,0.02,0.99,0.00,23.25,27.47,30.22,9.44,40.47,1005.40,2038.28,3100.99,3036.99,3268.02,499.30,490.30,41.01,0000 0000 0000 0000 000000
2014-05-29 10:10:40,0.03,0.99,0.00,23.26,27.45,30.21,9.49,40.42,1005.40,2038.48,3100.76,3036.94,3268.00,499.86,490.68,41.05,0000 0000 0000 0000 000000
2014-05-29 10:15:41,0.03,0.99,0.00,23.27,27.45,30.21,9.47,40.47,1005.40,2038.33,3100.05,3036.31,3267.89,500.17,490.80,41.09,0000 0000 0000 0000 000000
2014-05-29 10:20:42,0.03,1.00,0.00,23.26,27.45,30.21,9.49,40.42,1005.39,2038.39,3099.99,3036.03,3267.32,500.20,490.94,41.13,0000 0000 0000 0000 000000
2014-05-29 10:25:44,0.02,1.00,0.00,23.25,27.44,30.19,9.47,40.49,1005.39,2038.53,3099.60,3036.00,3267.05,499.91,490.74,41.17,0000 0000 0000 0000 000000
2014-05-29 10:30:45,0.03,1.00,0.00,23.26,27.43,30.17,9.47,40.54,1005.39,2038.66,3099.04,3035.99,3267.00,499.90,490.65,41.22,0000 0000 0000 0000 000000
2014-05-29 10:35:46,-0.00,1.00,0.00,23.27,27.42,30.18,9.50,40.34,1005.37,2038.62,3098.97,3035.72,3266.85,499.96,490.72,41.26,0000 0000 0000 0000 000000
2014-05-29 10:40:47,0.05,1.00,0.00,23.26,27.42,30.16,9.48,40.58,1005.36,2038.67,3098.62,3035.22,3266.37,499.95,490.66,41.30,0000 0000 0000 0000 000000
2014-05-29 10:45:48,0.03,1.00,0.00,23.26,27.42,30.15,9.45,40.61,1005.35,2038.85,3098.08,3035.04,3266.07,499.97,490.64,41.34,0000 0000 0000 0000 000000
2014-05-29 10:50:49,0.00,1.00,0.00,23.27,27.40,30.14,9.51,40.40,1005.32,2038.91,3098.00,3035.00,3266.00,500.16,491.04,41.38,0000 0000 0000 0000 000000
2014-05-29 10:55:50,0.01,1.00,0.00,23.26,27.40,30.12,9.47,40.38,1005.10,2038.90,3097.70,3034.99,3265.99,499.95,490.53,41.42,0000 0000 0000 0000 000000
2014-05-29 11:00:51,0.02,1.00,0.00,23.27,27.40,30.12,9.54,40.59,1004.96,2038.94,3097.05,3034.91,3265.78,499.99,490.43,41.47,0000 0000 0000 0000 000000
2014-05-29 11:05:53,0.03,1.01,0.00,23.27,27.38,30.12,9.47,40.63,1004.92,2038.95,3097.00,3034.49,3265.26,499.88,490.56,41.51,0000 0000 0000 0000 000000
2014-05-29 11:10:54,0.02,1.01,0.00,23.27,27.37,30.10,9.48,40.47,1004.92,2038.98,3096.78,3034.06,3265.01,500.15,490.62,41.55,0000 0000 0000 0000 000000
2014-05-29 11:15:55,0.01,1.01,0.00,23.26,27.37,30.10,9.48,40.41,1004.90,2038.99,3096.10,3034.00,3265.00,499.97,490.50,41.59,0000 0000 0000 0000 000000
2014-05-29 11:20:56,0.00,1.01,0.00,23.27,27.36,30.09,9.46,40.61,1004.90,2038.98,3096.00,3033.98,3264.92,500.24,490.78,41.63,0000 0000 0000 0000 000000
2014-05-29 11:25:57,0.02,1.01,0.00,23.27,27.35,30.09,9.42,40.63,1004.90,2038.99,3095.66,3033.88,3264.35,499.42,489.93,41.67,0000 0000 0000 0000 000000
2014-05-29 11:30:58,0.01,1.01,0.00,23.27,27.34,30.08,9.45,40.53,1004.90,2038.99,3095.17,3033.76,3264.08,499.76,490.22,41.72,0000 0000 0000 0000 000000
2014-05-29 11:35:59,0.02,1.01,0.00,23.27,27.32,30.06,9.46,40.52,1004.90,2038.99,3095.00,3033.26,3264.02,499.98,490.64,41.76,0000 0000 0000 0000 000000
2014-05-29 11:41:00,0.00,1.01,0.00,23.27,27.32,30.06,9.53,40.48,1004.90,2038.99,3094.98,3033.05,3264.00,500.19,490.60,41.80,0000 0000 0000 0000 000000
2014-05-29 11:46:01,0.01,1.01,0.00,23.26,27.30,30.05,9.50,40.48,1004.89,2039.00,3094.58,3033.01,3263.99,500.12,490.63,41.84,0000 0000 0000 0000 000000
2014-05-29 11:51:03,0.00,1.01,0.00,23.25,27.30,30.03,9.47,40.53,1004.90,2039.00,3094.06,3033.00,3263.95,500.17,490.71,41.88,0000 0000 0000 0000 000000
2014-05-29 11:56:04,0.02,1.01,0.00,23.26,27.28,30.00,9.45,40.47,1004.90,2039.02,3093.98,3032.98,3263.37,499.89,490.40,41.92,0000 0000 0000 0000 000000
2014-05-29 12:01:05,0.00,1.01,0.00,23.27,27.27,30.00,9.48,40.27,1004.88,2039.02,3093.83,3032.91,3263.05,500.12,490.70,41.97,0000 0000 0000 0000 000000
2014-05-29 12:06:06,0.03,1.01,0.00,23.27,27.26,30.00,9.47,40.48,1004.78,2039.03,3093.12,3032.51,3263.00,499.73,490.18,42.01,0000 0000 0000 0000 000000
2014-05-29 12:11:07,0.02,1.01,0.00,23.28,27.25,29.99,9.50,40.30,1004.56,2039.08,3093.00,3032.14,3263.00,500.10,490.47,42.05,0000 0000 0000 0000 000000
2014-05-29 12:16:08,0.01,1.02,0.00,23.29,27.25,30.00,9.50,40.44,1004.56,2039.24,3093.00,3032.03,3263.00,500.17,490.37,42.09,0000 0000 0000 0000 000000
2014-05-29 12:21:10,0.04,1.02,0.00,23.27,27.22,29.99,9.49,40.29,1004.46,2039.52,3092.73,3032.00,3262.99,500.33,490.60,42.13,0000 0000 0000 0000 000000
2014-05-29 12:26:11,0.02,1.02,0.00,23.27,27.22,29.98,9.46,40.27,1004.48,2039.61,3092.11,3032.00,3262.91,500.07,490.37,42.17,0000 0000 0000 0000 000000
2014-05-29 12:31:12,0.04,1.02,0.00,23.28,27.20,29.98,9.44,40.40,1004.44,2039.80,3092.00,3032.00,3262.72,499.93,490.33,42.22,0000 0000 0000 0000 000000
2014-05-29 12:36:13,0.01,1.02,0.00,23.30,27.20,29.97,9.42,40.42,1004.45,2039.95,3091.99,3031.99,3262.38,499.87,490.13,42.26,0000 0000 0000 0000 000000
2014-05-29 12:41:14,0.02,1.02,0.00,23.27,27.18,29.97,9.50,40.50,1004.41,2039.97,3091.77,3031.95,3262.05,500.24,490.56,42.30,0000 0000 0000 0000 000000
2014-05-29 12:46:15,0.02,1.02,0.00,23.27,27.17,29.94,9.44,40.54,1004.41,2039.97,3091.12,3031.74,3262.01,499.57,489.88,42.34,0000 0000 0000 0000 000000
2014-05-29 12:51:16,0.01,1.02,0.00,23.29,27.15,29.94,9.51,40.47,1004.41,2039.98,3091.00,3031.31,3262.00,500.12,490.21,42.38,0000 0000 0000 0000 000000
2014-05-29 12:56:17,0.00,1.02,0.00,23.27,27.14,29.94,9.44,40.25,1004.41,2039.99,3090.99,3031.08,3261.99,500.13,490.42,42.42,0000 0000 0000 0000 000000
2014-05-29 13:01:19,0.02,1.02,0.00,23.29,27.12,29.92,9.46,40.38,1004.41,2039.99,3090.68,3031.01,3261.92,499.97,490.24,42.47,0000 0000 0000 0000 000000